Location: Miles
(41.4492°N, 81.6087°W)
Time: 18:24:49
(UTC+00:00)

Transit 2A - Pass Details

Date: 17 September 2024
Orbit: 590 x 960 km, 66.7° (Epoch: 05 October)

Event Time Altitude Azimuth Distance (km) Brightness Sun altitude
Rises 01:45:09 0° 270° (W) 3,518 10.4 -24.6°
Reaches altitude 10° 01:48:57 10° 294° (WNW) 2,636 9.8 -25.2°
Maximum altitude 01:52:14 15° 327° (NNW) 2,353 9.2 -25.8°
Drops below altitude 10° 01:55:35 10° 359° (N) 2,696 9.2 -26.3°
Sets 01:59:34 0° 22° (NNE) 3,651 9.6 -27.0°
